www.pogodaiklimat.ru

Погода и климат >> Архив погоды >> Россия >> Якутия >> Нерюнгри


АРХИВ ПОГОДЫ в Нерюнгри

Время (UTC), дата Ветер
(напр.,м/с)
 
Видим.   Явления Облачность Т
(С)
Тd
(С)
f
(%)
Тe
(С)
Тes
(С)
Комфортность P
(гПа)
Po
(гПа)
Тmin
(С)
Tmax
(С)
R
(мм)
R24
(мм)
S
(см)
21 17.08 Ю 4 2000 м дымка {ливн. осадки} 10/10 120 м
[Cb cap]
+7.8 +6.5 91 +4 +4 холодно 1007.2 908.5
00 18.08 Ю 5 20 км {ливн. осадки, туман} 10/10 300 м
[Cb cap]
+7.4 +6.1 91 +3 +3 холодно 1008.2 909.3 +7.0 1
03 18.08 Ю 5 50 км 10/8 570 м
[Cb cap Ci fib]
+11.9 +6.7 70 +10 +10 прохладно 1007.1 909.8
06 18.08 Ю 4 50 км 10/5 600 м
[Cb cap Ac trans Ci fib]
+14.3 +6.9 61 +13 +14 прохладно 1005.8 909.4
09 18.08 Ю 3 50 км 10/9 750 м
[Cb cap Ci fib]
+14.1 +7.4 64 +13 +13 по сезону 1006.3 909.8
12 18.08 Ю 3 50 км 10/8 720 м
[Cb cap Ac und]
+11.4 +7.7 78 +10 +10 прохладно 1008.4 910.8 +15.3
15 18.08 ЮВ 2 50 км 10/6 800 м
[Cb cap Ac und]
+10.8 +7.7 81 +10 +10 по сезону 1009.9 912.0
18 18.08 Ю 3 50 км {ливн. осадки} 10/8 630 м
[Cb cap Ac und]
+9.6 +7.9 89 +7 +7 по сезону 1010.9 912.5
21 18.08 нст 2 50 км {ливн. осадки} 10/6 570 м
[Cb cap Ac und]
+9.2 +8.0 92 +7 +7 по сезону 1011.9 913.3
00 19.08 нст 1 50 км {ливн. осадки} 10/4 300 м
[Cb cap Ac trans Ci fib]
+11.8 +7.9 77 +12 +14 тепло 1012.0 914.2 +9.0 0.0
03 19.08 Ю 2 50 км 10/3 600 м
[Cb cap Ac trans Ci fib]
+14.6 +7.8 64 +14 +18 по сезону 1010.7 914.0
06 19.08 50 км 10/3 600 м
[Cb cap Ac trans Ci fib]
+15.5 +8.6 63 1010.2 913.8
09 19.08 Ю 2 50 км в посл. час ливневой дождь 10/4 600 м
[Cb cap Ac trans Ci fib]
+15.2 +8.7 65 +15 +16 по сезону 1010.3 913.8
12 19.08 Ю 3 50 км {ливн. осадки} 10/5 600 м
[Cb cap Ac und]
+12.3 +8.7 79 +11 +11 по сезону 1011.7 914.1 +15.8 0.0
15 19.08 Ю 2 50 км {ливн. осадки} 10/4 600 м
[Cb cap Ac und]
+10.8 +8.4 85 +9 +9 по сезону 1012.5 914.4
18 19.08 штиль 0 50 км {ливн. осадки} 10/3 600 м
[Cb cap Ac trans Ci fib]
+10.0 +8.4 90 +9 +9 по сезону 1012.5 914.2
21 19.08 штиль 0 500 м туман ?/? +7.4 +6.5 94 +6 +6 прохладно 1014.0 914.5
00 20.08 СВ 1 2000 м дымка {туман} 8/8 90 м
[St]
+9.4 +8.8 96 +9 +10 по сезону 1013.5 914.7 +7.3 0.0
03 20.08 ЮВ 2 50 км 8/5 600 м
[Cu med, cong Ci fib]
+16.5 +9.4 63 +17 +21 тепло 1010.7 914.6
06 20.08 В 2 50 км 10/5 600 м
[Cu med, cong Ci fib]
+18.0 +7.3 50 +19 +22 тепло 1009.8 914.1
09 20.08 ЮВ 3 50 км 10/5 600 м
[Sc diur, vesp Ci fib]
+16.7 +7.3 54 +17 +17 тепло 1010.0 914.0
12 20.08 Ю 3 50 км 10/3 600 м
[Sc diur, vesp Ac trans Ci fib]
+13.5 +8.3 71 +12 +12 по сезону 1012.3 915.1 +19.0
15 20.08 ЮВ 2 50 км 10/0
[Ac trans Ci fib]
+12.8 +9.3 79 +12 +12 по сезону 1013.3 915.7
18 20.08 штиль 0 50 км 10/0
[Ac und]
+11.4 +8.6 83 +11 +11 тепло 1013.9 915.7
21 20.08 штиль 0 50 км 10/4 1000 м
[Sc Ac trans Ci fib]
+11.2 +9.4 89 +11 +11 по сезону 1013.9 915.7
00 21.08 штиль 0 50 км туман на расстоянии {ливн. осадки} 10/5 600 м
[Cb cap Ac trans Ci fib]
+11.7 +10.3 91 +11 +13 по сезону 1013.7 915.9 +10.4 0.1
03 21.08 СВ 2 50 км {ливн. осадки} 10/8 800 м
[Cb cap Ac und]
+13.6 +10.5 82 +13 +14 по сезону 1013.2 915.9
06 21.08 В 3 20 км слаб. ливневой дождь 8/5 600 м
[Cb cap Ac trans Ci fib]
+16.5 +11.5 72 +16 +19 по сезону 1011.1 915.0
09 21.08 нст 1 50 км в посл. час ливневой дождь 9/8 660 м
[Cb cap Ac trans]
+14.4 +13.3 93 +15 +15 по сезону 1012.5 915.6
12 21.08 нст 1 50 км туман на расстоянии {ливн. осадки} 10/6 600 м
[Cb cap Ci fib]
+13.0 +12.1 94 +13 +13 по сезону 1013.6 916.1 +18.2 4
15 21.08 Ю 2 50 км 10/5 600 м
[Cb cap Ci fib]
+11.4 +10.6 95 +10 +10 по сезону 1014.6 916.5
18 21.08 штиль 0 500 м туман ?/? +8.9 +8.3 96 +8 +8 по сезону 1015.9 916.7
21 21.08 штиль 0 500 м туман ?/? +9.5 +8.9 96 +9 +9 по сезону 1015.9 917.1
00 22.08 штиль 0 500 м туман ?/? +11.5 +11.5 100 +11 +11 по сезону 1015.5 917.4 +8.6
03 22.08 нст 1 50 км {туман} 8/3 600 м
[Cb cap Ac trans Ci fib]
+17.5 +10.8 65 +19 +24 тепло 1013.0 917.0
06 22.08 50 км {туман} 8/4 600 м
[Cb cap Ci fib]
+20.5 +9.5 49 1010.5 915.6
09 22.08 С 2 50 км 8/4 600 м
[Cb cap Ci fib]
+19.1 +9.7 54 +20 +21 тепло 1011.2 915.8
12 22.08 СЗ 2 50 км в посл. час гроза 10/8 800 м
[Cb cap Ci fib]
+15.5 +10.4 72 +15 +15 тепло 1013.4 916.7 +21.4
15 22.08 З 2 50 км 10/4 600 м
[Cb cap Ac trans Ci fib]
+14.4 +10.8 79 +14 +14 тепло 1014.1 917.1
18 22.08 нст 1 50 км 10/4 600 м
[Cb cap Ac trans Ci fib]
+13.3 +10.6 84 +13 +13 тепло 1014.6 917.2
21 22.08 С 1 50 км туман на расстоянии 10/4 600 м
[Cb cap Ac und]
+12.7 +10.8 88 +13 +13 тепло 1015.2 917.5
00 23.08 Ю 1 50 км в посл. час ливневой дождь 10/6 840 м
[Cb cap Ac und]
+13.4 +11.5 88 +14 +14 тепло 1015.7 918.2 +12.1 0.0
03 23.08 штиль 0 50 км {ливн. осадки} 10/8 900 м
[Cb cap Ac und]
+16.1 +11.9 76 +16 +17 тепло 1014.3 917.9
06 23.08 нст 1 50 км {ливн. осадки} 10/5 600 м
[Cb cap Ac trans Ci fib]
+18.5 +11.2 62 +20 +22 тепло 1012.2 916.5
09 23.08 СЗ 2 20 км ливневой дождь 10/5 600 м
[Cb cap Ac trans Ci fib]
+17.8 +15.4 86 +18 +19 тепло 1011.6 916.1
12 23.08 штиль 0 50 км {ливн. осадки} 10/3 1000 м
[Sc diur, vesp Ac trans Ci fib]
+14.3 +9.9 75 +14 +14 тепло 1013.4 916.3 +19.7 7
15 23.08 нст 1 50 км 10/0
[Ac trans Ci fib]
+13.6 +11.0 84 +14 +14 тепло 1013.6 916.3
18 23.08 нст 1 50 км туман на расстоянии ясно +11.2 +10.4 95 +11 +11 тепло 1013.8 915.8
21 23.08 штиль 0 500 м туман ?/? +8.6 +8.6 100 +8 +8 по сезону 1014.9 915.8
00 24.08 нст 1 1000 м в посл. час туман 8/8 90 м
[St]
+11.4 +11.0 97 +11 +12 тепло 1013.8 915.8 +8.4
03 24.08 Ю 2 50 км 6/3 600 м
[Cu hum Ci fib]
+19.2 +10.7 58 +21 +27 комфорт 1010.0 914.9
06 24.08 ЮЗ 4 50 км в посл. час гроза 10/5 600 м
[Cb cap Ci fib]
+21.1 +9.6 48 +22 +25 комфорт 1007.6 913.2
09 24.08 ЮЗ 3 50 км 10/5 600 м
[Cb cap Ci fib]
+19.2 +8.9 51 +20 +21 тепло 1007.9 912.8
12 24.08 Ю 4 50 км {ливн. осадки} 10/4 600 м
[Cb cap Ci fib]
+14.1 +10.5 79 +13 +13 по сезону 1010.0 913.2 +22.2 0.8
15 24.08 Ю 4 50 км 8/3 600 м
[Cb cap Ci fib]
+12.7 +10.0 84 +11 +11 по сезону 1010.3 913.0

 

Местоположение метеостанции Нерюнгри (Якутия, Россия): широта 56.83 долгота 124.86 высота над уровнем моря 858 м.

В архиве по умолчанию представлена погода в Нерюнгри за последнюю неделю. Архивные данные за месяц целиком и за предыдущие месяцы, начиная с января 2011 года, Вы можете получить, выбрав интересующий диапазон дат из раскрывающегося списка и нажав кнопку "Ввод!".


*Определитесь, кто Вы:
робот инопланетянин человек

Внимание! Время в таблицах - всемирное. Для получения местного времени необходимо прибавить поправку, которая равна 9 ч.

Смотрите также архив погоды в соседних городах и на ближайших метеорологических станциях:

Погода в Нагорном (Якутия, Россия) (96 км)
Погода в Канкунском (Якутия, Россия) (111 км)
Погода в Суон-Тите (Якутия, Россия) (154 км)
Погода в Лопче (Амурская область, Россия) (178 км)
Погода в Тынде (Амурская область, Россия) (184 км)
Погода в Алдане (Якутия, Россия) (199 км)
Погода в Усть-Нюкже (Амурская область, Россия) (207 км)
Погода в Томмоте (Якутия, Россия) (251 км)
Погода в Угино (Якутия, Россия) (295 км)
Погода в Джикимде (Якутия, Россия) (307 км)

Пояснения к столбцам:

Ветер - указаны скорость ветра в м/с - средняя за 10 мин, порывы в срок и между сроками (в фигурных скобках) и направление, откуда дует ветер: С - северный, СВ - северо-восточный, В - восточный, ЮВ - юго-восточный, Ю - южный, ЮЗ - юго-западный, З - западный, СЗ - северо-западный.
Видимость - горизонтальная дальность видимости в метрах или километрах. При видимости от 1 до 10 км при отсутствии осадков обычно наблюдается дымка, при ухудшении видимости до 1 км и менее - туман. В сухую погоду видимость может ухудшаться дымом, пылью или мглою.
Явления - указаны атмосферные явления, наблюдавшиеся в срок или в последний час перед сроком; фигурными скобками обозначены явления, наблюдавшиеся между сроками (за 1-3 часа до срока); квадратными скобками обозначены град или гололедные отложения с указанием их диаметра в мм.
Облачность - указаны через наклонную черту общая и нижняя облачность в баллах и высота нижней границы облаков в метрах; квадратными скобками обозначены формы облаков: Ci - перистые, Cs - перисто-слоистые, Cc - перисто-кучевые, Ac - высококучевые, As - высокослоистые, Sc - слоисто-кучевые, Ns - слоисто-дождевые, Cu - кучевые, Cb - кучево-дождевые. Подробнее классификацию облаков см. в Атласе облаков (PDF).
T - Температура воздуха - температура, измеренная на высоте 2 м над землей.
Td - Температура точки росы - температура, при понижении до которой содержащийся в воздухе водяной пар достигнет насыщения.
f - Относительная влажность воздуха - влажноcть воздуха, измеренная на высоте 2 м над землей.
Te - Эффективная температура - температура, которую ощущает одетый по сезону человек в тени. Характеристика душности погоды. При расчете учитывается влияние влажности воздуха и скорости ветра на теплоощущения человека.
Tes - Эффективная температура на солнце - температура, которую ощущает человек, с поправкой на солнечный нагрев. Характеристика знойности погоды. Зависит от высоты солнца над горизонтом, облачности и скорости ветра. Ночью, в пасмурную погоду, а также при ветре 12 м/с и более поправка равна нулю.
P - Атмосферное давление - приведенное к уровню моря атмосферное давление.
Po - Атмосферное давление - измеренное на уровне метеостанции атмосферное давление.
Tmin - Минимальная температура - минимум температуры воздуха на высоте 2 м над землей.
Tmax - Максимальная температура - максимум температуры воздуха на высоте 2 м над землей.
R - Количество осадков - Количество выпавших осадков за период времени, мм. При наведении курсора мыши на число - период времени, за который выпало указанное количество осадков.
R24 - Количество осадков - Количество выпавших осадков за 24 часа, мм.
S - Снежный покров - Высота снежного покрова, см. При наведении курсора мыши на число - состояние снежного покрова и степень покрытия местности в баллах.